Location: Binningen
(47.7924°N, 8.7261°E)
Time: 01:57:13
(UTC+00:00)

Terra - Pass Details

Date: 04 October 2021
Orbit: 701 x 703 km, 98.2° (Epoch: 24 October)

Event Time Altitude Azimuth Distance (km) Brightness Sun altitude
Exits shadow 21:24:35 12° 344° (NNW) 2,045 4.8 -41.0°
Drops below altitude 10° 21:24:56 10° 344° (NNW) 2,181 4.9 -41.0°
Sets 21:27:12 0° 346° (NNW) 3,103 5.9 -41.2°
